Simultaneous Nadir Overpasses (SNOs) Predictions

Prediction of SNOs between AQUA and NOAA-19 Satellite Orbit:

Table of predicted SNOs for the next 14.0 days since TLE Epoch: 5/6/2016
Index Date (AQUA) Time (AQUA) Lat,Lon (AQUA) SZA (AQUA ) Date (NOAA-19) Time (NOAA-19) Lat,Lon (NOAA-19) SZA (NOAA-19 ) Distance(km) Time Diff (sec)
1 05/08/2016 17:00:41 80.79,-113.33 65.39 05/08/2016 17:00:05 80.79,-113.24 65.40 1.65 36
2 05/08/2016 17:50:07 -80.78, 54.45 114.64 05/08/2016 17:51:10 -80.78, 54.28 114.65 3.11 63
3 05/10/2016 22:34:22 -80.80, -16.92 115.16 05/10/2016 22:34:15 -80.79, -16.78 115.18 2.62 7
4 05/13/2016 04:08:02 80.79, 79.80 64.26 05/13/2016 04:08:16 80.80, 79.69 64.27 2.06 14
5 05/15/2016 08:52:17 80.83, 8.30 63.81 05/15/2016 08:51:22 80.82, 8.31 63.83 0.82 55
6 05/15/201
